Le nostre stazioni meteo in Italia

Pubblicità
Il mio iltempo24.it
Braemar, Gran Bretagna (99089): Temperatura & dewpoint: 14.04.2018 19:00:00 - 20.04.2018 19:00:00 (BST)Braemar, Gran Bretagna (99089): Temperatura -20cm & Temperatura -100cm: 14.04.2018 19:00:00 - 20.04.2018 19:00:00 (BST)Braemar, Gran Bretagna (99089): precipitazioni: 14.04.2018 19:00:00 - 20.04.2018 19:00:00 (BST)
Data & Tempo tt [°C] td [°C] tt -20cm [°C] tt -100cm [°C] rr [mm]
20.04.2018 19:00:00 - - - - 0,6
20.04.2018 18:00:00 8,6 5,7 - - 0,2
20.04.2018 17:00:00 12,0 4,1 - - 0,0
20.04.2018 16:00:00 12,1 3,6 - - 0,0
20.04.2018 15:00:00 12,8 4,8 - - 0,0
20.04.2018 14:00:00 12,7 4,9 - - 0,0
20.04.2018 13:00:00 12,0 4,8 - - 0,0
20.04.2018 12:00:00 12,8 4,9 - - 0,0
20.04.2018 11:00:00 12,2 4,3 - - 0,0
20.04.2018 10:00:00 12,1 4,8 8,7 6,0 0,0
20.04.2018 09:00:00 10,6 7,5 - - 0,0
20.04.2018 08:00:00 2,2 2,1 - - 0,0
20.04.2018 07:00:00 1,3 1,1 - - 0,0
20.04.2018 06:00:00 1,6 1,4 - - 0,0
20.04.2018 05:00:00 1,8 1,5 - - 0,0
20.04.2018 04:00:00 3,0 2,6 - - 0,0
20.04.2018 03:00:00 3,8 3,3 - - 0,0
20.04.2018 02:00:00 4,8 4,5 - - 0,0
20.04.2018 01:00:00 4,6 4,2 - - 0,0
20.04.2018 00:00:00 5,1 4,5 - - 0,0
19.04.2018 23:00:00 5,2 3,6 - - 0,0
19.04.2018 22:00:00 7,4 5,3 - - 0,0
19.04.2018 21:00:00 10,9 5,9 - - 0,0
19.04.2018 20:00:00 13,2 6,4 - - 0,0
19.04.2018 19:00:00 14,3 6,3 - - 0,0
19.04.2018 18:00:00 14,7 6,9 - - 0,0
19.04.2018 17:00:00 14,8 6,5 - - 0,0
19.04.2018 16:00:00 15,5 7,7 - - 0,0
19.04.2018 15:00:00 16,0 9,5 - - 0,0
19.04.2018 14:00:00 14,2 9,6 - - 0,0
19.04.2018 13:00:00 15,3 10,3 - - 0,0
19.04.2018 12:00:00 14,8 9,4 - - 0,0
19.04.2018 11:00:00 14,9 9,5 - - 0,0
19.04.2018 10:00:00 14,4 9,1 8,0 5,7 0,0
19.04.2018 09:00:00 14,0 9,0 - - 0,0
19.04.2018 08:00:00 - - - - 0,0
19.04.2018 07:00:00 - - - - -
19.04.2018 06:00:00 - - - - -
19.04.2018 05:00:00 - - - - -
19.04.2018 04:00:00 - - - - -
19.04.2018 03:00:00 - - - - -
19.04.2018 02:00:00 13,1 9,6 - - 0,0
19.04.2018 01:00:00 14,1 9,8 - - 0,0
19.04.2018 00:00:00 14,8 9,6 - - 0,0
18.04.2018 23:00:00 14,4 9,4 - - 0,0
18.04.2018 22:00:00 13,8 8,9 - - 0,0
18.04.2018 21:00:00 12,3 7,9 - - 0,0
18.04.2018 20:00:00 12,9 8,4 - - 0,0
18.04.2018 19:00:00 13,1 9,0 - - 0,0
18.04.2018 18:00:00 13,2 8,8 - - 0,0
18.04.2018 17:00:00 12,6 9,1 - - 0,0
18.04.2018 16:00:00 13,2 8,1 - - 0,0
18.04.2018 15:00:00 13,9 8,6 - - 0,0
18.04.2018 14:00:00 12,6 9,3 - - 0,0
18.04.2018 13:00:00 12,0 9,1 - - 0,0
18.04.2018 12:00:00 11,8 8,5 - - 0,0
18.04.2018 11:00:00 11,1 7,9 - - 0,0
18.04.2018 10:00:00 10,7 7,3 7,5 5,7 0,0
18.04.2018 09:00:00 10,3 6,9 - - 0,0
18.04.2018 08:00:00 9,8 6,2 - - 0,0
18.04.2018 07:00:00 9,1 5,8 - - 0,0
18.04.2018 06:00:00 8,9 5,8 - - 0,0
18.04.2018 05:00:00 9,3 6,4 - - 0,0
18.04.2018 04:00:00 8,7 6,9 - - 0,4
18.04.2018 03:00:00 9,3 6,7 - - 0,0
18.04.2018 02:00:00 10,0 6,6 - - 0,0
18.04.2018 01:00:00 10,0 7,0 - - 0,0
18.04.2018 00:00:00 9,8 7,3 - - 0,2
17.04.2018 23:00:00 9,5 7,6 - - 0,0
17.04.2018 22:00:00 9,7 6,9 - - 0,4
17.04.2018 21:00:00 9,8 7,6 - - 0,4
17.04.2018 20:00:00 9,9 6,1 - - 0,6
17.04.2018 19:00:00 10,7 7,1 - - 0,0
17.04.2018 18:00:00 11,0 7,2 - - 0,2
17.04.2018 17:00:00 10,3 8,0 - - 0,4
17.04.2018 16:00:00 10,8 7,2 - - 0,2
17.04.2018 15:00:00 11,1 8,1 - - 0,4
17.04.2018 14:00:00 11,2 6,6 - - 0,0
17.04.2018 13:00:00 10,4 6,8 - - 0,0
17.04.2018 12:00:00 10,0 7,0 - - 0,8
17.04.2018 11:00:00 9,4 7,4 - - 1,2
17.04.2018 10:00:00 9,1 7,1 7,2 5,4 1,4
17.04.2018 09:00:00 8,5 6,6 - - 1,2
17.04.2018 08:00:00 8,0 5,9 - - 0,2
17.04.2018 07:00:00 7,8 5,6 - - 1,0
17.04.2018 06:00:00 7,5 5,1 - - 0,4
17.04.2018 05:00:00 7,7 4,8 - - 0,0
17.04.2018 04:00:00 7,9 4,2 - - 0,0
17.04.2018 03:00:00 8,1 4,0 - - 0,0
17.04.2018 02:00:00 7,6 3,9 - - 0,0
17.04.2018 01:00:00 7,5 3,8 - - 0,0
17.04.2018 00:00:00 7,3 3,7 - - 0,0
16.04.2018 23:00:00 8,1 3,1 - - 0,0
16.04.2018 22:00:00 8,4 3,3 - - 0,0
16.04.2018 21:00:00 8,4 3,4 - - 0,0
16.04.2018 20:00:00 8,7 3,3 - - 0,0
16.04.2018 19:00:00 9,2 2,6 - - 0,0
16.04.2018 18:00:00 10,0 3,1 - - 0,0
16.04.2018 17:00:00 10,2 5,3 - - 0,0
16.04.2018 16:00:00 11,0 4,6 - - 0,0
16.04.2018 15:00:00 10,8 4,8 - - 0,0
16.04.2018 14:00:00 11,1 6,0 - - 0,0
16.04.2018 13:00:00 9,5 6,7 - - 0,0
16.04.2018 12:00:00 9,2 6,5 - - 0,0
16.04.2018 11:00:00 8,9 6,1 - - 0,0
16.04.2018 10:00:00 8,9 6,0 7,0 5,0 0,0
16.04.2018 09:00:00 6,8 6,0 - - 0,0
16.04.2018 08:00:00 6,2 5,2 - - 0,0
16.04.2018 07:00:00 5,4 4,8 - - 0,0
16.04.2018 06:00:00 5,3 4,6 - - 0,6
16.04.2018 05:00:00 5,6 4,6 - - 0,0
16.04.2018 04:00:00 5,4 4,4 - - 0,2
16.04.2018 03:00:00 5,2 4,4 - - 0,0
16.04.2018 02:00:00 5,1 4,1 - - 0,0
16.04.2018 01:00:00 5,6 4,3 - - 0,0
16.04.2018 00:00:00 6,6 3,9 - - 0,0
15.04.2018 23:00:00 6,6 4,0 - - 0,0
15.04.2018 22:00:00 6,6 3,8 - - 0,0
15.04.2018 21:00:00 7,4 3,8 - - 0,0
15.04.2018 20:00:00 7,5 4,3 - - 0,0
15.04.2018 19:00:00 8,4 4,7 - - 0,0
15.04.2018 18:00:00 9,2 4,6 - - 0,0
15.04.2018 17:00:00 10,6 4,8 - - 0,0
15.04.2018 16:00:00 11,7 4,7 - - 0,0
15.04.2018 15:00:00 11,7 3,8 - - 0,0
15.04.2018 14:00:00 12,9 5,5 - - 0,0
15.04.2018 13:00:00 12,2 4,2 - - 0,0
15.04.2018 12:00:00 12,8 3,5 - - 0,0
15.04.2018 11:00:00 12,4 4,9 - - 0,0
15.04.2018 10:00:00 8,0 5,9 6,2 4,9 0,0
15.04.2018 09:00:00 2,4 2,4 - - 0,2
15.04.2018 08:00:00 -0,7 -0,8 - - 0,0
15.04.2018 07:00:00 -0,6 -0,7 - - 0,0
15.04.2018 06:00:00 -1,4 -1,6 - - 0,0
15.04.2018 05:00:00 -1,5 -1,9 - - 0,0
15.04.2018 04:00:00 -0,6 -1,0 - - 0,0
15.04.2018 03:00:00 1,1 0,6 - - 0,0
15.04.2018 02:00:00 2,0 1,3 - - 0,0
15.04.2018 01:00:00 3,4 2,0 - - 0,0
15.04.2018 00:00:00 5,4 3,6 - - 0,0
14.04.2018 23:00:00 7,1 4,5 - - 0,0
14.04.2018 22:00:00 8,2 5,0 - - 0,0
14.04.2018 21:00:00 8,9 5,1 - - 0,0
14.04.2018 20:00:00 9,6 4,0 - - 0,0
14.04.2018 19:00:00 10,5 4,1 - - 0,0

tt = Temperatura
td = dewpoint
tt -20cm = Temperatura -20cm
tt -100cm = Temperatura -100cm
rr = precipitazioni

Stazioni seguenti

WeatherPro
AMSI
MeteoEarth